Torna al catalogo

STARLINK-11535

AttivoComunicazioniVLEO
NORAD 62595·PAYLOAD·🇺🇸 United States

Lanciato Jan 13, 2025 da Cape Canaveral Space Force Station

Loading…

Prossimi Passaggi (prossime 24 ore)

TLE

AggiornatoSource: CelesTrak SupGP

Epoca: Sep 15, 2026, 02:34 UTC

1 62595C 25008J   26258.10743056 -.00071977  00000+0 -55870-3 0  2589
2 62595  43.0010  64.0221 0001768 267.1609 290.3791 15.70888271    14

Traccia STARLINK-11535 in tempo reale con AllMySat

Download on the App Store